TimeMST,TemperatureF,Dew PointF,Humidity,Sea Level PressureIn,VisibilityMPH,Wind Direction,Wind SpeedMPH,Gust SpeedMPH,PrecipitationIn,Events,Conditions,WindDirDegrees,DateUTC
12:53 AM,28.0,5.0,38,30.24,10.0,ENE,3.5,-,N/A,,Clear,70,2012-11-05 07:53:00
1:53 AM,28.9,6.1,38,30.22,10.0,NE,3.5,-,N/A,,Clear,40,2012-11-05 08:53:00
2:53 AM,23.0,1.0,39,30.25,10.0,ENE,4.6,-,N/A,,Clear,60,2012-11-05 09:53:00
3:53 AM,24.1,1.9,38,30.23,10.0,ENE,6.9,-,N/A,,Clear,70,2012-11-05 10:53:00
5:53 AM,28.0,6.1,39,30.29,10.0,East,3.5,-,N/A,,Clear,80,2012-11-05 12:53:00
6:53 AM,24.1,3.0,40,30.35,10.0,Calm,Calm,-,N/A,,Clear,0,2012-11-05 13:53:00
7:53 AM,33.1,8.1,35,30.39,10.0,Calm,Calm,-,N/A,,Clear,0,2012-11-05 14:53:00
8:53 AM,42.1,10.0,27,30.36,10.0,Calm,Calm,-,N/A,,Clear,0,2012-11-05 15:53:00
9:53 AM,48.9,12.9,24,30.32,10.0,Calm,Calm,-,N/A,,Clear,0,2012-11-05 16:53:00
10:53 AM,59.0,18.0,20,30.25,10.0,Calm,Calm,-,N/A,,Clear,0,2012-11-05 17:53:00
11:53 AM,63.0,21.9,21,30.21,10.0,Calm,Calm,-,N/A,,Clear,0,2012-11-05 18:53:00
12:53 PM,66.0,23.0,20,30.17,10.0,South,5.8,-,N/A,,Clear,180,2012-11-05 19:53:00
1:53 PM,66.9,23.0,19,30.13,10.0,Variable,4.6,-,N/A,,Clear,0,2012-11-05 20:53:00
2:53 PM,68.0,21.9,17,30.16,10.0,WNW,4.6,-,N/A,,Clear,300,2012-11-05 21:53:00
3:53 PM,68.0,23.0,18,30.15,10.0,NE,6.9,-,N/A,,Clear,50,2012-11-05 22:53:00
4:53 PM,64.9,21.9,19,30.14,10.0,NNE,6.9,-,N/A,,Clear,30,2012-11-05 23:53:00
5:53 PM,53.1,19.9,27,30.22,10.0,Calm,Calm,-,N/A,,Clear,0,2012-11-06 00:53:00
6:53 PM,46.9,18.0,32,30.32,9.0,Calm,Calm,-,N/A,,Clear,0,2012-11-06 01:53:00
7:53 PM,46.0,19.0,34,30.27,10.0,Calm,Calm,-,N/A,,Clear,0,2012-11-06 02:53:00
8:53 PM,41.0,16.0,36,30.25,10.0,Calm,Calm,-,N/A,,Clear,0,2012-11-06 03:53:00
9:53 PM,37.9,17.1,43,30.23,10.0,Calm,Calm,-,N/A,,Clear,0,2012-11-06 04:53:00
10:53 PM,35.1,16.0,46,30.19,10.0,East,3.5,-,N/A,,Clear,90,2012-11-06 05:53:00
11:53 PM,34.0,16.0,48,30.17,10.0,NE,4.6,-,N/A,,Clear,50,2012-11-06 06:53:00